AUA908 UGTB-LOWW

Flight info

Callsign AUA908
Flight time 3h 29m
Altitude 34000
Route DF DCT BARUS DCT ROLIN UN644 SIN UW90 INB UL746 ODERO L746 LUGEB DCT BALUX DCT TORNO DCT NATEX NATEX2W
Aircraft A321/M-SDE3FGHIRWY/LB1

Departure

Time 2026-05-06 15:51
Airport Tbilisi International Airport (UGTB)

Arrival

Time 2026-05-06 19:21
Airport Vienna International Airport (LOWW)
Time Latitude Longitude Altitude Speed Heading
2026-05-06 15:38 41.66861 44.96392 1526 ft 0 kts 43°
2026-05-06 15:39 41.66861 44.96391 1526 ft 0 kts 43°
2026-05-06 15:41 41.66860 44.96391 1526 ft 0 kts 43°
2026-05-06 15:44 41.66851 44.96380 1520 ft 4 kts 43°
2026-05-06 15:45 41.66832 44.96355 1522 ft 4 kts 43°
2026-05-06 15:45 41.66815 44.96332 1521 ft 4 kts 66°
2026-05-06 15:45 41.66815 44.96303 1521 ft 4 kts 126°
2026-05-06 15:45 41.66826 44.96285 1520 ft 1 kts 133°
2026-05-06 15:46 41.66828 44.96282 1520 ft 2 kts 133°
2026-05-06 15:47 41.66827 44.96284 1520 ft 2 kts 133°
2026-05-06 15:48 41.66805 44.96315 1519 ft 8 kts 133°
2026-05-06 15:48 41.66752 44.96390 1523 ft 14 kts 133°
2026-05-06 15:48 41.66652 44.96419 1526 ft 18 kts 194°
2026-05-06 15:48 41.66517 44.96376 1525 ft 21 kts 194°
2026-05-06 15:49 41.66363 44.96327 1526 ft 24 kts 194°
2026-05-06 15:49 41.66208 44.96307 1525 ft 21 kts 168°
2026-05-06 15:49 41.66097 44.96400 1522 ft 17 kts 142°
2026-05-06 15:49 41.66014 44.96499 1521 ft 15 kts 135°
2026-05-06 15:50 41.65946 44.96584 1526 ft 13 kts 143°
2026-05-06 15:50 41.65873 44.96587 1524 ft 10 kts 217°
2026-05-06 15:50 41.65851 44.96466 1525 ft 22 kts 286°
2026-05-06 15:50 41.66022 44.96233 1524 ft 62 kts 317°
2026-05-06 15:51 41.66496 44.95638 1522 ft 122 kts 317°
2026-05-06 15:51 41.67234 44.94712 1641 ft 160 kts 316°
2026-05-06 15:51 41.68081 44.93665 2194 ft 169 kts 317°
2026-05-06 15:51 41.68939 44.92602 2884 ft 167 kts 316°
2026-05-06 15:52 41.69821 44.91509 3147 ft 182 kts 317°
2026-05-06 15:52 41.70794 44.90304 3311 ft 199 kts 317°
2026-05-06 15:52 41.71842 44.89011 3466 ft 217 kts 318°
2026-05-06 15:52 41.73008 44.87572 3580 ft 240 kts 317°
2026-05-06 15:53 41.74282 44.85990 3917 ft 255 kts 317°
2026-05-06 15:53 41.75589 44.84358 4604 ft 257 kts 316°
2026-05-06 15:53 41.76885 44.82689 5253 ft 260 kts 312°
2026-05-06 15:53 41.78061 44.80828 5883 ft 263 kts 307°
2026-05-06 15:54 41.79168 44.78859 6530 ft 266 kts 306°
2026-05-06 15:54 41.80263 44.76846 7128 ft 268 kts 305°
2026-05-06 15:54 41.81370 44.74822 7744 ft 270 kts 306°
2026-05-06 15:54 41.82497 44.72785 8334 ft 273 kts 306°
2026-05-06 15:55 41.83637 44.70741 8932 ft 275 kts 306°
2026-05-06 15:55 41.84796 44.68684 9542 ft 277 kts 306°
2026-05-06 15:55 41.85926 44.66693 10098 ft 279 kts 306°
2026-05-06 15:55 41.87125 44.64578 10350 ft 294 kts 306°
2026-05-06 15:56 41.88398 44.62325 10481 ft 311 kts 306°
2026-05-06 15:56 41.89730 44.59938 10609 ft 327 kts 303°
2026-05-06 15:56 41.90833 44.57205 10811 ft 338 kts 291°
2026-05-06 15:56 41.91489 44.54163 11284 ft 341 kts 279°
2026-05-06 15:57 41.91668 44.50968 11693 ft 346 kts 269°
2026-05-06 15:57 41.91657 44.47729 12253 ft 348 kts 270°
2026-05-06 15:57 41.91651 44.44462 12699 ft 352 kts 270°
2026-05-06 15:57 41.91651 44.41165 13249 ft 353 kts 270°
2026-05-06 15:58 41.91650 44.37855 13748 ft 355 kts 270°
2026-05-06 15:58 41.91646 44.34533 14252 ft 357 kts 270°
2026-05-06 15:58 41.91640 44.31185 14679 ft 360 kts 269°
2026-05-06 15:58 41.91632 44.27825 15131 ft 361 kts 269°
2026-05-06 15:59 41.91621 44.24436 15521 ft 365 kts 269°
2026-05-06 15:59 41.91610 44.21026 15997 ft 365 kts 269°
2026-05-06 15:59 41.91601 44.17655 16411 ft 367 kts 269°
2026-05-06 15:59 41.91592 44.14228 16884 ft 368 kts 269°
2026-05-06 16:00 41.91583 44.10729 17225 ft 371 kts 269°
2026-05-06 16:00 41.91571 44.07293 17582 ft 375 kts 269°
2026-05-06 16:00 41.91557 44.03777 17901 ft 379 kts 269°
2026-05-06 16:00 41.91541 44.00236 18286 ft 380 kts 269°
2026-05-06 16:01 41.91524 43.96682 18650 ft 381 kts 269°
2026-05-06 16:01 41.91504 43.93117 18961 ft 383 kts 269°
2026-05-06 16:01 41.91481 43.89529 19265 ft 385 kts 269°
2026-05-06 16:01 41.91456 43.85913 19512 ft 388 kts 269°
2026-05-06 16:02 41.91431 43.82287 19851 ft 389 kts 268°
2026-05-06 16:02 41.91409 43.78655 20179 ft 389 kts 268°
2026-05-06 16:02 41.91386 43.75011 20493 ft 391 kts 269°
2026-05-06 16:02 41.91357 43.71343 20783 ft 393 kts 268°
2026-05-06 16:03 41.91323 43.67662 21026 ft 396 kts 268°
2026-05-06 16:03 41.91295 43.64002 21348 ft 396 kts 268°
2026-05-06 16:03 41.91270 43.60294 21667 ft 398 kts 268°
2026-05-06 16:03 41.91246 43.56586 22001 ft 398 kts 268°
2026-05-06 16:04 41.91215 43.52851 22296 ft 401 kts 268°
2026-05-06 16:04 41.91180 43.49104 22598 ft 403 kts 268°
2026-05-06 16:04 41.91146 43.45329 22887 ft 405 kts 269°
2026-05-06 16:04 41.91110 43.41533 23186 ft 407 kts 268°
2026-05-06 16:05 41.91070 43.37725 23502 ft 409 kts 268°
2026-05-06 16:05 41.91028 43.33895 23793 ft 411 kts 268°
2026-05-06 16:05 41.90983 43.30048 24036 ft 413 kts 268°
2026-05-06 16:05 41.90937 43.26190 24311 ft 414 kts 268°
2026-05-06 16:06 41.90894 43.22319 24574 ft 415 kts 268°
2026-05-06 16:06 41.90852 43.18434 24849 ft 416 kts 268°
2026-05-06 16:06 41.90806 43.14548 25107 ft 417 kts 268°
2026-05-06 16:06 41.90757 43.10649 25368 ft 418 kts 268°
2026-05-06 16:07 41.90707 43.06785 25628 ft 419 kts 268°
2026-05-06 16:07 41.90655 43.02817 25896 ft 420 kts 268°
2026-05-06 16:07 41.90602 42.98897 26136 ft 421 kts 267°
2026-05-06 16:07 41.90545 42.94999 26342 ft 424 kts 267°
2026-05-06 16:08 41.90484 42.91041 26578 ft 425 kts 267°
2026-05-06 16:08 41.90424 42.87069 26822 ft 426 kts 267°
2026-05-06 16:08 41.90361 42.83079 27052 ft 427 kts 266°
2026-05-06 16:08 41.90252 42.79100 27302 ft 427 kts 265°
2026-05-06 16:09 41.90100 42.75108 27550 ft 428 kts 265°
2026-05-06 16:09 41.89925 42.71105 27775 ft 429 kts 264°
2026-05-06 16:09 41.89746 42.67100 28012 ft 430 kts 264°
2026-05-06 16:09 41.89569 42.63084 28253 ft 431 kts 265°
2026-05-06 16:10 41.89398 42.59060 28486 ft 432 kts 265°
2026-05-06 16:10 41.89231 42.55029 28697 ft 433 kts 265°
2026-05-06 16:10 41.89066 42.50986 28899 ft 434 kts 265°
2026-05-06 16:10 41.88902 42.46938 29069 ft 436 kts 265°
2026-05-06 16:11 41.88733 42.42859 29215 ft 437 kts 265°
2026-05-06 16:11 41.88560 42.38784 29375 ft 438 kts 265°
2026-05-06 16:11 41.88386 42.34708 29613 ft 437 kts 264°
2026-05-06 16:11 41.88213 42.30690 29846 ft 436 kts 264°
2026-05-06 16:12 41.88036 42.26637 30060 ft 435 kts 264°
2026-05-06 16:12 41.87859 42.22587 30281 ft 434 kts 264°
2026-05-06 16:12 41.87681 42.18541 30465 ft 434 kts 264°
2026-05-06 16:12 41.87503 42.14503 30636 ft 433 kts 264°
2026-05-06 16:13 41.87321 42.10466 30814 ft 433 kts 264°
2026-05-06 16:13 41.87135 42.06424 30972 ft 433 kts 264°
2026-05-06 16:13 41.86952 42.02395 31130 ft 433 kts 264°
2026-05-06 16:13 41.86770 41.98358 31299 ft 433 kts 264°
2026-05-06 16:14 41.86587 41.94310 31424 ft 435 kts 264°
2026-05-06 16:14 41.86400 41.90243 31552 ft 436 kts 264°
2026-05-06 16:14 41.86213 41.86181 31679 ft 437 kts 264°
2026-05-06 16:14 41.86022 41.82108 31812 ft 438 kts 264°
2026-05-06 16:15 41.85832 41.78081 31961 ft 438 kts 264°
2026-05-06 16:15 41.85637 41.73998 32117 ft 438 kts 264°
2026-05-06 16:15 41.85438 41.69923 32276 ft 438 kts 264°
2026-05-06 16:15 41.85235 41.65837 32411 ft 438 kts 264°
2026-05-06 16:16 41.85031 41.61762 32561 ft 438 kts 264°
2026-05-06 16:16 41.84830 41.57683 32707 ft 438 kts 264°
2026-05-06 16:16 41.84631 41.53598 32853 ft 438 kts 264°
2026-05-06 16:16 41.84431 41.49511 33010 ft 439 kts 264°
2026-05-06 16:17 41.84231 41.45431 33135 ft 439 kts 265°
2026-05-06 16:17 41.84028 41.41346 33274 ft 439 kts 264°
2026-05-06 16:17 41.83817 41.37258 33409 ft 439 kts 264°
2026-05-06 16:17 41.83601 41.33169 33541 ft 440 kts 264°
2026-05-06 16:18 41.83384 41.29083 33683 ft 440 kts 264°
2026-05-06 16:18 41.83168 41.24994 33813 ft 440 kts 264°
2026-05-06 16:18 41.82956 41.20904 33959 ft 440 kts 264°
2026-05-06 16:18 41.82749 41.16878 34113 ft 439 kts 264°
2026-05-06 16:19 41.82314 41.08719 34159 ft 438 kts 264°
2026-05-06 16:19 41.81871 41.00571 34161 ft 438 kts 264°
2026-05-06 16:20 41.81425 40.92397 34161 ft 441 kts 264°
2026-05-06 16:20 41.80973 40.84192 34162 ft 441 kts 264°
2026-05-06 16:21 41.80511 40.75984 34163 ft 441 kts 264°
2026-05-06 16:21 41.80039 40.67795 34167 ft 441 kts 264°
2026-05-06 16:22 41.80182 40.59583 34155 ft 442 kts 272°
2026-05-06 16:22 41.80551 40.51419 34152 ft 442 kts 272°
2026-05-06 16:23 41.80908 40.43199 34155 ft 442 kts 271°
2026-05-06 16:23 41.81252 40.34978 34140 ft 442 kts 271°
2026-05-06 16:24 41.81597 40.26748 34154 ft 442 kts 271°
2026-05-06 16:24 41.81935 40.18518 34151 ft 442 kts 271°
2026-05-06 16:25 41.82258 40.10339 34153 ft 442 kts 272°
2026-05-06 16:25 41.82586 40.02082 34145 ft 443 kts 272°
2026-05-06 16:26 41.82911 39.93835 34146 ft 443 kts 271°
2026-05-06 16:26 41.83226 39.85582 34147 ft 443 kts 271°
2026-05-06 16:27 41.83481 39.78715 34145 ft 443 kts 271°
2026-05-06 16:27 41.83827 39.69100 34152 ft 444 kts 271°
2026-05-06 16:28 41.84122 39.60836 34144 ft 445 kts 272°
2026-05-06 16:28 41.84364 39.53941 34140 ft 445 kts 272°
2026-05-06 16:29 41.84657 39.45634 34144 ft 445 kts 272°
2026-05-06 16:29 41.84943 39.37322 34144 ft 446 kts 271°
2026-05-06 16:30 41.85173 39.30412 34150 ft 446 kts 271°
2026-05-06 16:30 41.85485 39.20732 34141 ft 446 kts 272°
2026-05-06 16:31 41.85748 39.12406 34144 ft 447 kts 271°
2026-05-06 16:31 41.86003 39.04115 34146 ft 447 kts 272°
2026-05-06 16:32 41.86252 38.95771 34145 ft 447 kts 272°
2026-05-06 16:32 41.86500 38.87418 34147 ft 448 kts 272°
2026-05-06 16:33 41.86751 38.79060 34150 ft 448 kts 272°
2026-05-06 16:34 41.87099 38.66564 34146 ft 449 kts 271°
2026-05-06 16:34 41.87320 38.58182 34147 ft 449 kts 271°
2026-05-06 16:35 41.87539 38.49799 34149 ft 449 kts 271°
2026-05-06 16:35 41.87755 38.41414 34149 ft 449 kts 272°
2026-05-06 16:36 41.87960 38.33070 34140 ft 450 kts 271°
2026-05-06 16:36 41.88167 38.24657 34141 ft 451 kts 271°
2026-05-06 16:37 41.88365 38.16242 34144 ft 451 kts 271°
2026-05-06 16:37 41.88557 38.07812 34146 ft 452 kts 271°
2026-05-06 16:38 41.88741 37.99388 34145 ft 452 kts 271°
2026-05-06 16:38 41.88922 37.90945 34146 ft 452 kts 271°
2026-05-06 16:39 41.89096 37.82497 34148 ft 452 kts 272°
2026-05-06 16:39 41.89259 37.74106 34145 ft 452 kts 271°
2026-05-06 16:40 41.89416 37.65671 34146 ft 452 kts 271°
2026-05-06 16:40 41.89567 37.57224 34147 ft 453 kts 271°
2026-05-06 16:41 41.89714 37.48764 34142 ft 453 kts 271°
2026-05-06 16:41 41.89860 37.40301 34140 ft 453 kts 271°
2026-05-06 16:42 41.90000 37.31894 34149 ft 453 kts 271°
2026-05-06 16:42 41.90132 37.23444 34156 ft 453 kts 271°
2026-05-06 16:43 41.90249 37.14984 34169 ft 452 kts 271°
2026-05-06 16:43 41.90358 37.06548 34163 ft 452 kts 271°
2026-05-06 16:44 41.90650 36.98116 34157 ft 451 kts 276°
2026-05-06 16:44 41.91300 36.89734 34162 ft 451 kts 277°
2026-05-06 16:45 41.91977 36.81361 34157 ft 451 kts 276°
2026-05-06 16:45 41.92559 36.73026 34160 ft 451 kts 276°
2026-05-06 16:46 41.93096 36.64638 34168 ft 450 kts 276°
2026-05-06 16:46 41.93625 36.56254 34162 ft 450 kts 276°
2026-05-06 16:47 41.94163 36.47890 34164 ft 449 kts 276°
2026-05-06 16:47 41.94699 36.39528 34170 ft 449 kts 276°
2026-05-06 16:48 41.95225 36.31176 34167 ft 449 kts 276°
2026-05-06 16:48 41.95746 36.22873 34159 ft 448 kts 276°
2026-05-06 16:49 41.96262 36.14520 34164 ft 448 kts 276°
2026-05-06 16:49 41.96767 36.06174 34162 ft 448 kts 276°
2026-05-06 16:50 41.97269 35.97825 34158 ft 448 kts 276°
2026-05-06 16:50 41.97769 35.89469 34154 ft 448 kts 276°
2026-05-06 16:51 41.98261 35.81125 34159 ft 448 kts 276°
2026-05-06 16:51 41.98745 35.72779 34156 ft 447 kts 276°
2026-05-06 16:52 41.99216 35.64487 34161 ft 447 kts 276°
2026-05-06 16:52 41.99685 35.56140 34155 ft 447 kts 276°
2026-05-06 16:53 42.00156 35.47804 34153 ft 447 kts 276°
2026-05-06 16:53 42.00616 35.39460 34152 ft 447 kts 276°
2026-05-06 16:54 42.01061 35.31133 34156 ft 446 kts 276°
2026-05-06 16:54 42.01504 35.22806 34142 ft 446 kts 276°
2026-05-06 16:55 42.01946 35.14488 34148 ft 445 kts 277°
2026-05-06 16:55 42.02243 35.06231 34152 ft 446 kts 269°
2026-05-06 16:56 42.02242 34.97925 34150 ft 442 kts 278°
2026-05-06 16:56 42.02818 34.89685 34145 ft 442 kts 278°
2026-05-06 16:57 42.03404 34.81449 34135 ft 442 kts 278°
2026-05-06 16:57 42.03981 34.73213 34139 ft 442 kts 278°
2026-05-06 16:58 42.04546 34.64969 34141 ft 442 kts 278°
2026-05-06 16:58 42.05108 34.56720 34145 ft 442 kts 278°
2026-05-06 16:59 42.05662 34.48472 34146 ft 443 kts 278°
2026-05-06 16:59 42.06207 34.40287 34138 ft 442 kts 278°
2026-05-06 17:00 42.06744 34.32040 34151 ft 442 kts 278°
2026-05-06 17:00 42.07278 34.23803 34159 ft 441 kts 278°
2026-05-06 17:01 42.07808 34.15575 34161 ft 441 kts 278°
2026-05-06 17:01 42.08323 34.07317 34157 ft 441 kts 278°
2026-05-06 17:02 42.08840 33.99143 34146 ft 441 kts 278°
2026-05-06 17:02 42.09360 33.90912 34146 ft 441 kts 278°
2026-05-06 17:03 42.09857 33.82686 34150 ft 441 kts 278°
2026-05-06 17:03 42.10347 33.74458 34140 ft 440 kts 278°
2026-05-06 17:04 42.10844 33.66250 34128 ft 439 kts 278°
2026-05-06 17:04 42.11335 33.58054 34140 ft 438 kts 278°
2026-05-06 17:05 42.11816 33.49865 34142 ft 438 kts 278°
2026-05-06 17:05 42.12284 33.41685 34143 ft 438 kts 278°
2026-05-06 17:06 42.12747 33.33500 34142 ft 438 kts 278°
2026-05-06 17:06 42.13205 33.25374 34130 ft 438 kts 278°
2026-05-06 17:07 42.13659 33.17200 34129 ft 437 kts 278°
2026-05-06 17:07 42.14109 33.09028 34136 ft 437 kts 278°
2026-05-06 17:08 42.14556 33.00859 34140 ft 437 kts 278°
2026-05-06 17:08 42.14990 32.92692 34147 ft 436 kts 278°
2026-05-06 17:09 42.15421 32.84546 34130 ft 435 kts 278°
2026-05-06 17:09 42.15843 32.76418 34142 ft 434 kts 278°
2026-05-06 17:10 42.16253 32.68291 34143 ft 434 kts 278°
2026-05-06 17:10 42.16829 32.60224 34144 ft 429 kts 287°
2026-05-06 17:11 42.18351 32.52489 34142 ft 427 kts 289°
2026-05-06 17:11 42.19903 32.44761 34139 ft 427 kts 289°
2026-05-06 17:12 42.21428 32.37081 34139 ft 427 kts 289°
2026-05-06 17:12 42.22955 32.29336 34140 ft 427 kts 289°
2026-05-06 17:13 42.24484 32.21588 34143 ft 427 kts 289°
2026-05-06 17:13 42.26009 32.13840 34127 ft 428 kts 289°
2026-05-06 17:14 42.27520 32.06073 34132 ft 428 kts 289°
2026-05-06 17:14 42.29036 31.98301 34138 ft 428 kts 289°
2026-05-06 17:15 42.30552 31.90529 34142 ft 428 kts 289°
2026-05-06 17:15 42.32061 31.82757 34126 ft 428 kts 289°
2026-05-06 17:16 42.33310 31.76284 34124 ft 428 kts 289°
2026-05-06 17:16 42.34809 31.68481 34120 ft 428 kts 288°
2026-05-06 17:17 42.36304 31.60679 34131 ft 428 kts 288°
2026-05-06 17:17 42.37792 31.52876 34115 ft 428 kts 288°
2026-05-06 17:18 42.39275 31.45076 34127 ft 428 kts 288°
2026-05-06 17:18 42.40752 31.37275 34131 ft 428 kts 288°
2026-05-06 17:19 42.42212 31.29520 34133 ft 428 kts 288°
2026-05-06 17:19 42.43679 31.21709 34133 ft 428 kts 288°
2026-05-06 17:20 42.45134 31.13896 34136 ft 428 kts 288°
2026-05-06 17:20 42.46588 31.06087 34135 ft 428 kts 288°
2026-05-06 17:21 42.48041 30.98278 34122 ft 428 kts 288°
2026-05-06 17:21 42.49485 30.90454 34128 ft 428 kts 288°
2026-05-06 17:22 42.50912 30.82680 34108 ft 427 kts 288°
2026-05-06 17:22 42.52340 30.74855 34108 ft 428 kts 287°
2026-05-06 17:23 42.53769 30.67022 34116 ft 428 kts 287°
2026-05-06 17:23 42.55188 30.59185 34120 ft 428 kts 287°
2026-05-06 17:24 42.56604 30.51345 34102 ft 428 kts 287°
2026-05-06 17:24 42.58026 30.43494 34107 ft 429 kts 287°
2026-05-06 17:25 42.59431 30.35620 34115 ft 429 kts 287°
2026-05-06 17:25 42.61151 30.27904 34113 ft 424 kts 298°
2026-05-06 17:26 42.64394 30.21342 34103 ft 417 kts 314°
2026-05-06 17:26 42.68278 30.15454 34102 ft 419 kts 314°
2026-05-06 17:27 42.72152 30.09531 34103 ft 420 kts 314°
2026-05-06 17:27 42.76009 30.03617 34107 ft 420 kts 314°
2026-05-06 17:28 42.79892 29.97668 34095 ft 420 kts 314°
2026-05-06 17:28 42.83771 29.91703 34100 ft 421 kts 314°
2026-05-06 17:29 42.87652 29.85722 34107 ft 421 kts 314°
2026-05-06 17:29 42.91535 29.79724 34120 ft 422 kts 314°
2026-05-06 17:30 42.95423 29.73722 34103 ft 422 kts 314°
2026-05-06 17:30 42.99276 29.67738 34109 ft 422 kts 314°
2026-05-06 17:31 43.03158 29.61707 34115 ft 423 kts 314°
2026-05-06 17:31 43.07045 29.55666 34122 ft 423 kts 314°
2026-05-06 17:32 43.10924 29.49619 34125 ft 423 kts 313°
2026-05-06 17:32 43.14798 29.43552 34126 ft 423 kts 314°
2026-05-06 17:33 43.18673 29.37486 34126 ft 423 kts 313°
2026-05-06 17:33 43.22552 29.31401 34128 ft 423 kts 313°
2026-05-06 17:34 43.26423 29.25317 34120 ft 423 kts 314°
2026-05-06 17:34 43.30283 29.19229 34131 ft 423 kts 313°
2026-05-06 17:35 43.34141 29.13121 34131 ft 423 kts 313°
2026-05-06 17:35 43.38003 29.07011 34126 ft 423 kts 313°
2026-05-06 17:36 43.43786 28.97842 34125 ft 422 kts 313°
2026-05-06 17:36 43.47625 28.91733 34128 ft 421 kts 313°
2026-05-06 17:37 43.51455 28.85632 34131 ft 421 kts 313°
2026-05-06 17:37 43.55255 28.79557 34109 ft 421 kts 313°
2026-05-06 17:38 43.59058 28.73461 34125 ft 418 kts 313°
2026-05-06 17:38 43.62846 28.67380 34124 ft 417 kts 313°
2026-05-06 17:39 43.66617 28.61304 34133 ft 416 kts 313°
2026-05-06 17:39 43.70390 28.55224 34108 ft 417 kts 313°
2026-05-06 17:40 43.74059 28.49013 34092 ft 419 kts 306°
2026-05-06 17:40 43.77154 28.42185 34098 ft 419 kts 305°
2026-05-06 17:41 43.80227 28.35344 34096 ft 419 kts 305°
2026-05-06 17:41 43.83306 28.28490 34094 ft 418 kts 305°
2026-05-06 17:42 43.86380 28.21653 34087 ft 417 kts 305°
2026-05-06 17:42 43.89427 28.14856 34101 ft 416 kts 305°
2026-05-06 17:43 43.92476 28.08038 34088 ft 415 kts 304°
2026-05-06 17:43 43.95514 28.01226 34090 ft 415 kts 304°
2026-05-06 17:44 43.98546 27.94407 34085 ft 414 kts 304°
2026-05-06 17:44 44.01562 27.87598 34083 ft 413 kts 304°
2026-05-06 17:45 44.04553 27.80840 34075 ft 412 kts 304°
2026-05-06 17:45 44.07569 27.74006 34074 ft 412 kts 304°
2026-05-06 17:46 44.10559 27.67219 34063 ft 411 kts 304°
2026-05-06 17:46 44.13523 27.60478 34070 ft 410 kts 304°
2026-05-06 17:47 44.16495 27.53695 34056 ft 410 kts 304°
2026-05-06 17:47 44.19468 27.46895 34048 ft 411 kts 304°
2026-05-06 17:48 44.22441 27.40095 34028 ft 411 kts 304°
2026-05-06 17:48 44.25402 27.33284 34036 ft 410 kts 304°
2026-05-06 17:49 44.27654 27.28088 34040 ft 410 kts 304°
2026-05-06 17:49 44.30599 27.21283 34041 ft 410 kts 304°
2026-05-06 17:50 44.32717 27.16388 34043 ft 409 kts 304°
2026-05-06 17:50 44.35642 27.09631 34024 ft 409 kts 304°
2026-05-06 17:51 44.38573 27.02820 34034 ft 408 kts 304°
2026-05-06 17:51 44.41494 26.96005 34036 ft 408 kts 303°
2026-05-06 17:52 44.44412 26.89193 34037 ft 408 kts 304°
2026-05-06 17:52 44.47329 26.82389 34040 ft 407 kts 304°
2026-05-06 17:53 44.50234 26.75591 34032 ft 407 kts 303°
2026-05-06 17:53 44.53144 26.68771 34032 ft 407 kts 303°
2026-05-06 17:54 44.56039 26.61943 34026 ft 407 kts 303°
2026-05-06 17:54 44.58924 26.55103 34021 ft 407 kts 303°
2026-05-06 17:55 44.61789 26.48303 34013 ft 407 kts 303°
2026-05-06 17:55 44.64675 26.41458 34013 ft 407 kts 303°
2026-05-06 17:56 44.67558 26.34619 34029 ft 407 kts 303°
2026-05-06 17:56 44.70446 26.27760 34020 ft 407 kts 303°
2026-05-06 17:57 44.73323 26.20889 34021 ft 407 kts 302°
2026-05-06 17:57 44.76195 26.14007 34023 ft 407 kts 302°
2026-05-06 17:58 44.79056 26.07120 34020 ft 407 kts 302°
2026-05-06 17:58 44.81912 26.00235 34021 ft 407 kts 302°
2026-05-06 17:59 44.84754 25.93384 34001 ft 407 kts 302°
2026-05-06 17:59 44.87607 25.86489 34005 ft 407 kts 302°
2026-05-06 18:00 44.90453 25.79587 34016 ft 407 kts 302°
2026-05-06 18:00 44.93295 25.72678 34018 ft 407 kts 302°
2026-05-06 18:01 44.96137 25.65759 34025 ft 407 kts 302°
2026-05-06 18:01 44.98973 25.58830 34009 ft 407 kts 302°
2026-05-06 18:02 45.01801 25.51895 34021 ft 407 kts 301°
2026-05-06 18:02 45.04148 25.46117 34021 ft 407 kts 301°
2026-05-06 18:03 45.07430 25.38047 34029 ft 408 kts 301°
2026-05-06 18:03 45.10252 25.31081 34044 ft 407 kts 301°
2026-05-06 18:04 45.12608 25.25247 34046 ft 407 kts 301°
2026-05-06 18:04 45.15417 25.18286 34046 ft 407 kts 301°
2026-05-06 18:05 45.18229 25.11316 34046 ft 407 kts 301°
2026-05-06 18:05 45.21022 25.04371 34040 ft 407 kts 301°
2026-05-06 18:06 45.23819 24.97397 34047 ft 406 kts 301°
2026-05-06 18:06 45.26603 24.90427 34053 ft 406 kts 301°
2026-05-06 18:07 45.29377 24.83446 34046 ft 405 kts 301°
2026-05-06 18:07 45.32146 24.76462 34045 ft 405 kts 301°
2026-05-06 18:08 45.34901 24.69521 34033 ft 405 kts 301°
2026-05-06 18:08 45.37665 24.62526 34035 ft 405 kts 301°
2026-05-06 18:09 45.40424 24.55547 34028 ft 405 kts 301°
2026-05-06 18:09 45.43182 24.48557 34028 ft 405 kts 300°
2026-05-06 18:10 45.45932 24.41557 34025 ft 405 kts 300°
2026-05-06 18:10 45.48649 24.34593 34007 ft 405 kts 300°
2026-05-06 18:11 45.51384 24.27567 34008 ft 405 kts 300°
2026-05-06 18:11 45.54124 24.20535 34015 ft 405 kts 300°
2026-05-06 18:12 45.56863 24.13504 34014 ft 405 kts 300°
2026-05-06 18:12 45.59597 24.06450 34007 ft 406 kts 299°
2026-05-06 18:13 45.62325 23.99385 33993 ft 406 kts 300°
2026-05-06 18:13 45.65056 23.92304 34008 ft 407 kts 299°
2026-05-06 18:14 45.67786 23.85199 34012 ft 407 kts 300°
2026-05-06 18:14 45.70508 23.78098 34004 ft 407 kts 300°
2026-05-06 18:15 45.73209 23.71053 34011 ft 406 kts 300°
2026-05-06 18:15 45.75933 23.63918 34014 ft 406 kts 299°
2026-05-06 18:16 45.78631 23.56814 34008 ft 405 kts 299°
2026-05-06 18:16 45.81327 23.49717 34008 ft 405 kts 299°
2026-05-06 18:17 45.84000 23.42655 33995 ft 405 kts 298°
2026-05-06 18:17 45.86686 23.35540 33974 ft 406 kts 299°
2026-05-06 18:18 45.89381 23.28401 33983 ft 406 kts 298°
2026-05-06 18:18 45.92066 23.21255 33983 ft 407 kts 298°
2026-05-06 18:19 45.94751 23.14097 33983 ft 407 kts 298°
2026-05-06 18:19 45.97411 23.06969 33969 ft 407 kts 298°
2026-05-06 18:20 46.00087 22.99775 33979 ft 408 kts 298°
2026-05-06 18:20 46.02764 22.92566 33970 ft 408 kts 298°
2026-05-06 18:21 46.05438 22.85359 33975 ft 408 kts 298°
2026-05-06 18:21 46.08108 22.78141 33975 ft 409 kts 297°
2026-05-06 18:22 46.10786 22.70902 33970 ft 410 kts 297°
2026-05-06 18:22 46.13461 22.63639 33965 ft 410 kts 297°
2026-05-06 18:23 46.16133 22.56357 33967 ft 411 kts 297°
2026-05-06 18:23 46.18782 22.49099 33988 ft 410 kts 297°
2026-05-06 18:24 46.21438 22.41802 33967 ft 410 kts 297°
2026-05-06 18:24 46.24100 22.34491 33965 ft 411 kts 297°
2026-05-06 18:25 46.26757 22.27173 33966 ft 411 kts 296°
2026-05-06 18:25 46.29406 22.19849 33963 ft 411 kts 296°
2026-05-06 18:26 46.32050 22.12513 33960 ft 411 kts 296°
2026-05-06 18:26 46.34695 22.05167 33957 ft 412 kts 296°
2026-05-06 18:27 46.37340 21.97808 33944 ft 412 kts 296°
2026-05-06 18:27 46.39979 21.90435 33955 ft 412 kts 296°
2026-05-06 18:28 46.42598 21.83087 33943 ft 413 kts 296°
2026-05-06 18:28 46.45080 21.76099 33946 ft 413 kts 295°
2026-05-06 18:29 46.47712 21.68689 33937 ft 413 kts 295°
2026-05-06 18:29 46.50342 21.61270 33938 ft 414 kts 295°
2026-05-06 18:30 46.52964 21.53840 33942 ft 414 kts 295°
2026-05-06 18:30 46.55588 21.46392 33940 ft 414 kts 295°
2026-05-06 18:31 46.58207 21.38938 33939 ft 414 kts 295°
2026-05-06 18:31 46.60816 21.31464 33934 ft 414 kts 295°
2026-05-06 18:32 46.63423 21.23985 33926 ft 415 kts 295°
2026-05-06 18:32 46.66030 21.16492 33922 ft 415 kts 295°
2026-05-06 18:33 46.68630 21.08998 33954 ft 414 kts 294°
2026-05-06 18:33 46.71227 21.01504 33937 ft 414 kts 294°
2026-05-06 18:34 46.73820 20.94009 33940 ft 414 kts 294°
2026-05-06 18:34 46.76384 20.86557 33930 ft 414 kts 294°
2026-05-06 18:35 46.78959 20.79048 33928 ft 414 kts 294°
2026-05-06 18:35 46.81529 20.71537 33933 ft 413 kts 294°
2026-05-06 18:36 46.84091 20.64015 33926 ft 413 kts 294°
2026-05-06 18:36 46.86650 20.56483 33927 ft 413 kts 294°
2026-05-06 18:37 46.88781 20.50233 33919 ft 413 kts 294°
2026-05-06 18:37 46.91761 20.41441 33916 ft 413 kts 293°
2026-05-06 18:38 46.94301 20.33901 33908 ft 413 kts 293°
2026-05-06 18:38 46.96833 20.26349 33907 ft 413 kts 293°
2026-05-06 18:39 46.99344 20.18843 33912 ft 413 kts 293°
2026-05-06 18:40 47.03139 20.07500 33930 ft 413 kts 292°
2026-05-06 18:40 47.05662 19.99922 33919 ft 414 kts 293°
2026-05-06 18:41 47.08183 19.92329 33917 ft 414 kts 292°
2026-05-06 18:41 47.10703 19.84709 33915 ft 414 kts 292°
2026-05-06 18:42 47.13220 19.77095 33905 ft 414 kts 292°
2026-05-06 18:42 47.15713 19.69516 33916 ft 415 kts 292°
2026-05-06 18:43 47.18223 19.61865 33908 ft 416 kts 292°
2026-05-06 18:43 47.20727 19.54195 33902 ft 416 kts 292°
2026-05-06 18:44 47.23236 19.46506 33898 ft 417 kts 292°
2026-05-06 18:44 47.25736 19.38806 33896 ft 417 kts 292°
2026-05-06 18:45 47.28245 19.31069 33541 ft 419 kts 291°
2026-05-06 18:45 47.29502 19.27190 33269 ft 420 kts 291°
2026-05-06 18:45 47.30758 19.23299 32999 ft 420 kts 291°
2026-05-06 18:45 47.31590 19.20720 32820 ft 420 kts 292°
2026-05-06 18:46 47.33260 19.15531 32464 ft 418 kts 292°
2026-05-06 18:46 47.34505 19.11651 32205 ft 417 kts 291°
2026-05-06 18:46 47.35729 19.07789 31955 ft 415 kts 291°
2026-05-06 18:46 47.36924 19.03980 31695 ft 413 kts 291°
2026-05-06 18:47 47.38126 19.00138 31454 ft 412 kts 291°
2026-05-06 18:47 47.39323 18.96302 31202 ft 411 kts 291°
2026-05-06 18:47 47.40516 18.92480 30950 ft 409 kts 291°
2026-05-06 18:47 47.41703 18.88670 30697 ft 408 kts 291°
2026-05-06 18:48 47.42884 18.84876 30455 ft 406 kts 291°
2026-05-06 18:48 47.44062 18.81092 30207 ft 404 kts 291°
2026-05-06 18:48 47.45228 18.77345 29791 ft 399 kts 291°
2026-05-06 18:48 47.46376 18.73648 29272 ft 393 kts 291°
2026-05-06 18:49 47.47510 18.69993 28781 ft 388 kts 291°
2026-05-06 18:49 47.48625 18.66396 28311 ft 382 kts 291°
2026-05-06 18:49 47.49722 18.62852 27835 ft 376 kts 291°
2026-05-06 18:49 47.50802 18.59354 27369 ft 370 kts 290°
2026-05-06 18:50 47.51856 18.55917 26937 ft 364 kts 290°
2026-05-06 18:50 47.52893 18.52528 26507 ft 359 kts 290°
2026-05-06 18:50 47.53572 18.50305 26224 ft 358 kts 290°
2026-05-06 18:50 47.54431 18.46874 25785 ft 353 kts 284°
2026-05-06 18:51 47.55166 18.43415 25394 ft 352 kts 284°
2026-05-06 18:51 47.55901 18.39967 24985 ft 350 kts 284°
2026-05-06 18:51 47.56633 18.36538 24584 ft 349 kts 284°
2026-05-06 18:51 47.57367 18.33118 24180 ft 347 kts 284°
2026-05-06 18:52 47.58101 18.29676 23914 ft 359 kts 284°
2026-05-06 18:52 47.58858 18.26088 23877 ft 369 kts 284°
2026-05-06 18:52 47.59627 18.22439 23879 ft 372 kts 284°
2026-05-06 18:52 47.60401 18.18775 23868 ft 373 kts 284°
2026-05-06 18:53 47.61178 18.15102 23864 ft 373 kts 284°
2026-05-06 18:53 47.61936 18.11515 23318 ft 367 kts 284°
2026-05-06 18:53 47.62703 18.07878 22423 ft 364 kts 284°
2026-05-06 18:53 47.63445 18.04359 21602 ft 360 kts 284°
2026-05-06 18:54 47.64198 18.00786 20806 ft 356 kts 284°
2026-05-06 18:54 47.64931 17.97293 20041 ft 353 kts 284°
2026-05-06 18:54 47.65646 17.93874 19322 ft 350 kts 283°
2026-05-06 18:54 47.66365 17.90436 18617 ft 347 kts 283°
2026-05-06 18:55 47.67079 17.87008 17883 ft 351 kts 284°
2026-05-06 18:55 47.67810 17.83472 16765 ft 365 kts 283°
2026-05-06 18:55 47.68557 17.79849 16122 ft 368 kts 283°
2026-05-06 18:55 47.69311 17.76204 15852 ft 371 kts 283°
2026-05-06 18:56 47.70068 17.72542 15612 ft 371 kts 283°
2026-05-06 18:56 47.70823 17.68888 15352 ft 370 kts 283°
2026-05-06 18:56 47.71665 17.65279 15094 ft 372 kts 291°
2026-05-06 18:56 47.72854 17.61861 14856 ft 372 kts 293°
2026-05-06 18:57 47.74056 17.58459 14612 ft 371 kts 293°
2026-05-06 18:57 47.75252 17.55067 14369 ft 370 kts 293°
2026-05-06 18:57 47.76442 17.51684 14142 ft 368 kts 293°
2026-05-06 18:57 47.77622 17.48325 13902 ft 365 kts 293°
2026-05-06 18:58 47.78792 17.44984 13667 ft 364 kts 293°
2026-05-06 18:58 47.79955 17.41658 13393 ft 362 kts 293°
2026-05-06 18:58 47.81116 17.38336 13126 ft 361 kts 292°
2026-05-06 18:58 47.82269 17.35036 12861 ft 359 kts 292°
2026-05-06 18:59 47.83420 17.31745 12595 ft 355 kts 292°
2026-05-06 18:59 47.84541 17.28543 12312 ft 343 kts 292°
2026-05-06 18:59 47.85625 17.25441 12075 ft 332 kts 292°
2026-05-06 18:59 47.86672 17.22433 11816 ft 322 kts 292°
2026-05-06 19:00 47.87689 17.19495 11553 ft 317 kts 291°
2026-05-06 19:00 47.88697 17.16577 11304 ft 315 kts 291°
2026-05-06 19:00 47.89697 17.13677 11063 ft 314 kts 292°
2026-05-06 19:00 47.90680 17.10827 10818 ft 312 kts 292°
2026-05-06 19:01 47.91676 17.07955 10568 ft 312 kts 295°
2026-05-06 19:01 47.93038 17.05413 10333 ft 318 kts 313°
2026-05-06 19:01 47.94691 17.03212 10109 ft 318 kts 313°
2026-05-06 19:01 47.96347 17.01017 10006 ft 317 kts 313°
2026-05-06 19:02 47.97997 16.98834 10015 ft 318 kts 313°
2026-05-06 19:02 47.99652 16.96644 10015 ft 318 kts 313°
2026-05-06 19:02 48.01306 16.94451 10017 ft 318 kts 313°
2026-05-06 19:02 48.02959 16.92253 9984 ft 318 kts 313°
2026-05-06 19:03 48.04610 16.90057 9859 ft 317 kts 313°
2026-05-06 19:03 48.06255 16.87864 9742 ft 317 kts 313°
2026-05-06 19:03 48.07906 16.85661 9621 ft 318 kts 313°
2026-05-06 19:03 48.09555 16.83458 9494 ft 317 kts 313°
2026-05-06 19:04 48.11199 16.81257 9359 ft 317 kts 313°
2026-05-06 19:04 48.12841 16.79059 9228 ft 316 kts 313°
2026-05-06 19:04 48.14483 16.76863 9096 ft 316 kts 313°
2026-05-06 19:04 48.16121 16.74669 8967 ft 315 kts 313°
2026-05-06 19:05 48.17753 16.72487 8839 ft 315 kts 313°
2026-05-06 19:05 48.19365 16.70331 8712 ft 314 kts 313°
2026-05-06 19:05 48.21039 16.68164 8581 ft 316 kts 318°
2026-05-06 19:05 48.22921 16.66435 8450 ft 320 kts 330°
2026-05-06 19:06 48.25000 16.65283 8327 ft 325 kts 340°
2026-05-06 19:06 48.27181 16.64387 8201 ft 325 kts 340°
2026-05-06 19:06 48.29353 16.63480 8072 ft 324 kts 340°
2026-05-06 19:06 48.31522 16.62566 7949 ft 324 kts 341°
2026-05-06 19:07 48.33690 16.61649 7830 ft 323 kts 340°
2026-05-06 19:07 48.35852 16.60733 7693 ft 321 kts 340°
2026-05-06 19:07 48.37956 16.59847 7574 ft 307 kts 340°
2026-05-06 19:07 48.39968 16.59004 7432 ft 294 kts 340°
2026-05-06 19:08 48.41949 16.58536 7325 ft 285 kts
2026-05-06 19:08 48.43823 16.59302 7204 ft 276 kts 22°
2026-05-06 19:08 48.45521 16.60536 7069 ft 268 kts 25°
2026-05-06 19:08 48.47168 16.61800 6951 ft 265 kts 25°
2026-05-06 19:09 48.48804 16.63075 6830 ft 265 kts 25°
2026-05-06 19:09 48.50534 16.63894 6708 ft 259 kts 358°
2026-05-06 19:09 48.52257 16.63437 6593 ft 249 kts 330°
2026-05-06 19:09 48.53567 16.61852 6471 ft 239 kts 301°
2026-05-06 19:10 48.54131 16.59560 6351 ft 235 kts 269°
2026-05-06 19:10 48.53981 16.57135 6230 ft 228 kts 257°
2026-05-06 19:10 48.53667 16.54837 6060 ft 219 kts 256°
2026-05-06 19:10 48.53344 16.52649 5941 ft 209 kts 255°
2026-05-06 19:11 48.53033 16.50540 5813 ft 205 kts 256°
2026-05-06 19:11 48.52733 16.48495 5683 ft 195 kts 255°
2026-05-06 19:11 48.52453 16.46533 5538 ft 189 kts 256°
2026-05-06 19:11 48.52183 16.44645 5425 ft 181 kts 255°
2026-05-06 19:12 48.51842 16.42842 5294 ft 178 kts 238°
2026-05-06 19:12 48.50907 16.41689 5169 ft 180 kts 199°
2026-05-06 19:12 48.49639 16.41605 5073 ft 186 kts 178°
2026-05-06 19:12 48.48378 16.42107 4991 ft 189 kts 166°
2026-05-06 19:13 48.47136 16.42756 4962 ft 188 kts 167°
2026-05-06 19:13 48.45887 16.43341 4964 ft 187 kts 169°
2026-05-06 19:13 48.44651 16.43886 4981 ft 187 kts 169°
2026-05-06 19:13 48.43385 16.44432 4980 ft 187 kts 170°
2026-05-06 19:14 48.42147 16.44964 4976 ft 188 kts 169°
2026-05-06 19:14 48.40889 16.45503 4984 ft 187 kts 169°
2026-05-06 19:14 48.39639 16.46039 4982 ft 186 kts 169°
2026-05-06 19:14 48.38393 16.46572 4983 ft 186 kts 169°
2026-05-06 19:15 48.37143 16.47106 4987 ft 187 kts 169°
2026-05-06 19:15 48.35893 16.47641 4989 ft 187 kts 169°
2026-05-06 19:15 48.34643 16.48175 4985 ft 187 kts 169°
2026-05-06 19:15 48.33390 16.48710 4852 ft 187 kts 170°
2026-05-06 19:16 48.32131 16.49248 4638 ft 187 kts 170°
2026-05-06 19:16 48.30881 16.49782 4400 ft 186 kts 170°
2026-05-06 19:16 48.29640 16.50312 4156 ft 185 kts 170°
2026-05-06 19:16 48.28410 16.50836 3913 ft 183 kts 170°
2026-05-06 19:17 48.27208 16.51350 3661 ft 176 kts 171°
2026-05-06 19:17 48.26060 16.51840 3429 ft 168 kts 172°
2026-05-06 19:17 48.24963 16.52307 3215 ft 161 kts 172°
2026-05-06 19:17 48.23911 16.52755 3015 ft 154 kts 172°
2026-05-06 19:18 48.22906 16.53182 2813 ft 146 kts 172°
2026-05-06 19:18 48.21950 16.53589 2622 ft 140 kts 171°
2026-05-06 19:18 48.21025 16.53981 2446 ft 137 kts 171°
2026-05-06 19:18 48.20117 16.54365 2265 ft 135 kts 170°
2026-05-06 19:19 48.19214 16.54748 2088 ft 135 kts 169°
2026-05-06 19:19 48.18301 16.55135 1903 ft 138 kts 169°
2026-05-06 19:19 48.17373 16.55528 1727 ft 138 kts 168°
2026-05-06 19:19 48.16448 16.55921 1561 ft 137 kts 168°
2026-05-06 19:20 48.15521 16.56314 1360 ft 140 kts 167°
2026-05-06 19:20 48.14581 16.56711 1177 ft 140 kts 166°
2026-05-06 19:20 48.13663 16.57097 1002 ft 138 kts 166°
2026-05-06 19:20 48.12741 16.57497 779 ft 137 kts 165°
2026-05-06 19:21 48.11820 16.57886 624 ft 137 kts 165°
2026-05-06 19:21 48.10990 16.58232 618 ft 104 kts 165°
2026-05-06 19:21 48.10504 16.58441 613 ft 37 kts 164°
2026-05-06 19:21 48.10263 16.58455 612 ft 33 kts 187°
2026-05-06 19:22 48.10141 16.58389 617 ft 6 kts 220°
2026-05-06 19:22 48.10135 16.58383 622 ft 0 kts 218°
2026-05-06 19:24 48.10132 16.58382 613 ft 1 kts 205°
2026-05-06 19:24 48.10125 16.58377 612 ft 3 kts 209°
2026-05-06 19:24 48.10108 16.58339 623 ft 5 kts 247°
2026-05-06 19:24 48.10096 16.58292 616 ft 5 kts 249°
2026-05-06 19:25 48.10094 16.58227 620 ft 8 kts 287°
2026-05-06 19:25 48.10126 16.58185 618 ft 4 kts 336°
2026-05-06 19:25 48.10158 16.58171 612 ft 6 kts 344°
2026-05-06 19:25 48.10192 16.58157 621 ft 2 kts 345°
2026-05-06 19:26 48.10209 16.58149 617 ft 2 kts 342°
2026-05-06 19:26 48.10212 16.58147 617 ft 0 kts 342°
2026-05-06 19:27 48.10213 16.58147 617 ft 0 kts 342°
2026-05-06 19:28 48.10219 16.58144 618 ft 2 kts 342°
2026-05-06 19:28 48.10251 16.58130 620 ft 7 kts 343°
2026-05-06 19:28 48.10292 16.58112 609 ft 3 kts 344°
2026-05-06 19:28 48.10294 16.58111 610 ft 0 kts 344°
2026-05-06 19:30 48.10293 16.58111 610 ft 0 kts 344°
2026-05-06 19:36 48.10293 16.58112 610 ft 0 kts 344°
2026-05-06 19:38 48.10296 16.58110 610 ft 3 kts 344°
2026-05-06 19:38 48.10340 16.58092 619 ft 10 kts 344°
2026-05-06 19:39 48.10422 16.58060 621 ft 15 kts 346°
2026-05-06 19:39 48.10535 16.58016 624 ft 19 kts 347°
2026-05-06 19:39 48.10661 16.57957 617 ft 20 kts 347°
2026-05-06 19:39 48.10803 16.57900 617 ft 22 kts 344°
2026-05-06 19:40 48.10933 16.57842 623 ft 19 kts 343°
2026-05-06 19:40 48.11057 16.57789 621 ft 18 kts 343°
2026-05-06 19:40 48.11162 16.57696 614 ft 17 kts 303°
2026-05-06 19:40 48.11215 16.57537 618 ft 17 kts 296°
2026-05-06 19:41 48.11265 16.57383 618 ft 16 kts 297°
2026-05-06 19:41 48.11313 16.57235 614 ft 15 kts 294°
2026-05-06 19:41 48.11359 16.57095 620 ft 15 kts 297°
2026-05-06 19:41 48.11403 16.56958 616 ft 14 kts 295°
2026-05-06 19:42 48.11472 16.56882 613 ft 13 kts 10°
2026-05-06 19:42 48.11558 16.56916 615 ft 12 kts 347°
2026-05-06 19:42 48.11612 16.56825 626 ft 12 kts 296°
2026-05-06 19:42 48.11644 16.56715 610 ft 11 kts 296°
2026-05-06 19:43 48.11680 16.56610 617 ft 9 kts 297°
2026-05-06 19:43 48.11711 16.56593 617 ft 5 kts 15°
2026-05-06 19:43 48.11747 16.56616 615 ft 5 kts 25°
2026-05-06 19:43 48.11759 16.56624 621 ft 0 kts 25°
2026-05-06 19:44 48.11762 16.56626 613 ft 1 kts 25°
2026-05-06 19:44 48.11764 16.56627 614 ft 0 kts 26°